Stations météo

Publicité
Köln-Bonn, Allemagne (10513): Température de l'air & dewpoint: 12.01.2018 06:00:00 - 18.01.2018 06:00:00 (CET)Köln-Bonn, Allemagne (10513): Température de l'air 5cm & Température de l'air -5cm: 12.01.2018 06:00:00 - 18.01.2018 06:00:00 (CET)Köln-Bonn, Allemagne (10513): Température de l'air -20cm & Température de l'air -100cm: 12.01.2018 06:00:00 - 18.01.2018 06:00:00 (CET)Köln-Bonn, Allemagne (10513): Vitesse du vent & gusts: 12.01.2018 06:00:00 - 18.01.2018 06:00:00 (CET)Köln-Bonn, Allemagne (10513): Direction du vent: 12.01.2018 06:00:00 - 18.01.2018 06:00:00 (CET)Köln-Bonn, Allemagne (10513): reduced air pressure: 12.01.2018 06:00:00 - 18.01.2018 06:00:00 (CET)Köln-Bonn, Allemagne (10513): visibility: 12.01.2018 06:00:00 - 18.01.2018 06:00:00 (CET)Köln-Bonn, Allemagne (10513): Ensoleillement: 12.01.2018 06:00:00 - 18.01.2018 06:00:00 (CET)Köln-Bonn, Allemagne (10513): Quantités de précipitations: 12.01.2018 06:00:00 - 18.01.2018 06:00:00 (CET)
Date & Time tt [°C] td [°C] tt 5cm [°C] tt -5cm [°C] tt -20cm [°C] tt -100cm [°C] ff [km/h] ff [knt] fx [km/h] fx [knt] dd ppp [hPa] vv [km] sd [min] rr [mm]
18.01.2018 06:00:00 4,0 2,0 2,9 2,8 3,3 6,8 27 15 42 23 S 998,3 35 0 0,9
18.01.2018 05:00:00 3,9 1,8 2,8 2,5 3,2 6,8 21 11 31 17 S 1001,4 25 0 0,2
18.01.2018 04:00:00 3,8 1,0 3,0 2,3 3,2 6,8 16 8 28 15 S 1004,4 35 0 0,0
18.01.2018 03:00:00 4,0 0,8 2,9 2,1 3,2 6,8 15 8 22 12 S 1006,0 30 0 0,0
18.01.2018 02:00:00 4,1 0,0 2,8 1,9 3,2 6,8 16 8 24 13 SSW 1007,4 30 0 0,0
18.01.2018 01:00:00 4,0 -0,1 2,5 1,8 3,2 6,8 13 7 31 17 SW 1008,3 30 0 0,0
18.01.2018 00:00:00 3,9 0,0 2,4 1,8 3,3 6,8 18 10 32 17 WSW 1008,7 30 0 0,0
17.01.2018 23:00:00 4,4 -0,2 3,2 1,9 3,3 6,8 17 9 27 14 WSW 1009,0 30 0 0,0
17.01.2018 22:00:00 4,0 -0,2 2,8 1,9 3,4 6,8 14 7 29 15 WSW 1008,8 30 0 0,0
17.01.2018 21:00:00 3,9 -0,3 2,7 1,9 3,4 6,8 14 7 33 18 WSW 1008,8 30 0 0,0
17.01.2018 20:00:00 3,4 -0,4 1,8 2,2 3,5 6,8 17 9 35 19 W 1008,7 30 0 0,0
17.01.2018 19:00:00 3,4 0,4 2,6 2,5 3,5 6,9 21 11 47 25 W 1008,4 30 0 0,0
17.01.2018 18:00:00 3,2 0,5 1,8 2,6 3,5 6,9 28 15 48 26 WNW 1007,7 30 0 0,0
17.01.2018 17:00:00 3,5 0,4 2,2 3,0 3,4 6,9 28 15 77 41 W 1006,4 30 0 0,1
17.01.2018 16:00:00 4,1 0,4 3,3 3,3 3,2 6,9 36 19 61 33 W 1004,8 25 11 0,0
17.01.2018 15:00:00 4,0 0,4 3,1 2,9 3,1 6,9 29 16 54 29 W 1004,2 30 10 0,0
17.01.2018 14:00:00 2,9 0,6 2,3 1,7 3,1 6,9 27 15 53 29 W 1003,5 30 0 0,0
17.01.2018 13:00:00 1,8 0,3 1,1 1,1 3,1 6,9 22 12 44 24 W 1003,3 12 0 0,1
17.01.2018 12:00:00 1,1 0,3 0,9 1,1 3,2 6,9 12 6 37 20 W 1003,1 25 7 0,4
17.01.2018 11:00:00 1,7 -1,0 0,9 1,3 3,3 6,9 21 12 45 24 W 1002,1 20 0 0,0
17.01.2018 10:00:00 1,0 -0,3 0,5 1,3 3,4 6,9 14 7 36 20 W 1001,2 35 0 0,1
17.01.2018 09:00:00 1,0 -1,1 0,0 1,4 3,5 6,9 23 13 42 23 W 1000,0 20 0 0,0
17.01.2018 08:00:00 0,7 -0,5 -0,1 1,4 3,6 6,9 15 8 46 25 W 998,6 35 0 0,1
17.01.2018 07:00:00 0,1 -0,1 -0,1 1,7 3,7 6,9 16 9 46 25 W 997,3 4,0 0 2,3
17.01.2018 06:00:00 3,3 -0,1 2,0 2,3 3,8 6,9 19 11 41 22 W 995,4 45 0 0,0
17.01.2018 05:00:00 2,9 1,0 1,7 2,2 3,8 6,9 16 8 45 24 W 995,1 45 0 0,5
17.01.2018 04:00:00 3,6 0,6 2,1 2,5 3,9 6,9 23 12 41 22 W 994,7 55 0 0,0
17.01.2018 03:00:00 3,5 0,6 2,5 2,6 3,9 6,9 17 9 26 14 WSW 994,2 60 0 0,0
17.01.2018 02:00:00 3,4 1,0 2,3 2,4 3,9 6,9 17 9 31 17 SW 994,0 60 0 0,0
17.01.2018 01:00:00 3,3 0,8 2,0 2,3 4,0 6,9 14 8 28 15 SSW 994,7 45 0 0,0
17.01.2018 00:00:00 2,8 0,1 0,8 2,1 4,1 6,9 12 6 16 9 S 995,1 45 0 0,0
16.01.2018 23:00:00 1,9 0,6 0,7 2,3 4,2 6,9 13 7 21 11 S 995,6 45 0 0,0
16.01.2018 22:00:00 2,4 1,0 1,3 2,7 4,3 6,9 11 6 21 11 SSW 996,0 45 0 0,1
16.01.2018 21:00:00 2,7 0,5 1,2 2,6 4,5 6,9 11 6 18 10 W 996,2 45 0 0,0
16.01.2018 20:00:00 2,6 1,2 1,6 3,1 4,6 6,9 9 5 22 12 WSW 996,5 35 0 0,4
16.01.2018 19:00:00 3,2 1,2 2,2 3,1 4,7 6,9 14 8 21 11 WSW 996,0 30 0 0,0
16.01.2018 18:00:00 2,8 0,9 1,5 3,4 4,8 6,9 9 5 27 14 WSW 996,2 30 0 0,0
16.01.2018 17:00:00 3,9 1,6 2,9 4,1 4,8 6,9 13 7 35 19 W 996,3 18 12 0,2
16.01.2018 16:00:00 3,7 1,5 3,7 4,1 4,9 6,9 11 6 39 21 WNW 995,9 30 23 1,3
16.01.2018 15:00:00 3,5 1,8 2,8 4,5 4,9 6,9 23 12 58 31 NW 995,4 9 0 0,0
16.01.2018 14:00:00 3,6 2,0 3,2 4,8 4,8 6,9 29 15 44 24 NW 995,5 25 1 0,2
16.01.2018 13:00:00 4,7 2,4 4,2 4,7 4,8 7,0 26 14 55 30 WNW 995,1 25 1 0,2
16.01.2018 12:00:00 5,2 1,9 3,6 4,5 4,8 7,0 35 19 70 38 W 994,2 40 0 1,7
16.01.2018 11:00:00 6,8 3,5 5,7 4,9 4,7 7,0 21 11 39 21 WSW 993,5 30 1 0,0
16.01.2018 10:00:00 6,2 3,4 5,1 4,4 4,7 7,0 17 9 38 21 SW 993,4 28 2 0,0
16.01.2018 09:00:00 5,6 3,3 3,8 4,2 4,7 7,0 14 8 32 17 SSW 993,2 35 0 0,1
16.01.2018 08:00:00 5,5 3,5 4,3 4,0 4,7 7,0 13 7 21 11 SW 993,2 50 0 0,0
16.01.2018 07:00:00 4,5 3,5 3,4 4,0 4,8 7,0 12 6 24 13 SSW 993,3 60 0 0,0
16.01.2018 06:00:00 4,8 3,1 3,6 4,4 4,8 7,0 22 12 46 25 WSW 994,1 65 0 1,2
16.01.2018 05:00:00 5,5 3,2 4,1 4,3 4,8 7,0 16 8 21 11 SSW 994,4 30 0 0,0
16.01.2018 04:00:00 5,8 3,1 4,2 4,7 4,8 7,0 12 6 28 15 SW 995,1 60 0 0,0
16.01.2018 03:00:00 6,2 4,5 5,3 4,9 4,7 7,0 15 8 38 21 WSW 995,8 60 0 0,4
16.01.2018 02:00:00 6,4 4,6 5,3 5,0 4,6 7,0 26 14 52 28 W 995,7 35 0 0,7
16.01.2018 01:00:00 7,2 5,3 6,0 4,8 4,6 7,0 19 10 35 19 WSW 995,0 40 0 0,1
16.01.2018 00:00:00 6,7 4,2 5,3 4,5 4,5 7,1 16 9 31 17 SSW 994,6 60 0 0,0
15.01.2018 23:00:00 6,0 3,3 4,6 4,4 4,5 7,1 22 12 41 22 SSW 994,9 50 0 0,5
15.01.2018 22:00:00 6,4 2,5 5,2 4,4 4,4 7,1 27 15 51 27 S 995,2 35 0 0,0
15.01.2018 21:00:00 6,5 2,3 5,6 4,4 4,4 7,1 31 17 52 28 SSW 996,1 70 0 0,0
15.01.2018 20:00:00 6,6 2,6 5,5 4,4 4,3 7,1 31 17 59 32 S 997,1 60 0 0,1
15.01.2018 19:00:00 6,5 3,1 5,5 4,3 4,3 7,1 23 12 43 23 S 998,2 40 0 0,1
15.01.2018 18:00:00 6,3 3,0 4,7 4,3 4,2 7,1 26 14 41 22 S 999,7 30 0 0,0
15.01.2018 17:00:00 5,5 3,8 4,5 4,3 4,1 7,1 20 11 39 21 SSE 1001,7 30 0 0,5
15.01.2018 16:00:00 5,9 3,7 4,7 4,3 3,9 7,2 19 11 31 17 S 1003,8 23 0 0,9
15.01.2018 15:00:00 6,4 2,7 5,4 4,3 3,8 7,2 23 12 39 21 SSE 1005,1 27 0 0,0
15.01.2018 14:00:00 6,2 2,5 6,0 4,3 3,5 7,2 20 11 31 17 SSE 1007,0 22 0 0,0
15.01.2018 13:00:00 5,3 2,1 5,2 3,8 3,3 7,2 19 10 27 15 SSE 1009,7 20 0 0,0
15.01.2018 12:00:00 5,3 1,6 5,2 3,5 3,1 7,2 13 7 27 15 SSE 1011,4 22 10 0,0
15.01.2018 11:00:00 4,5 1,0 4,6 2,1 3,0 7,2 19 10 26 14 SSE 1012,6 22 0 0,0
15.01.2018 10:00:00 3,1 0,0 2,6 1,1 3,0 7,2 19 11 28 15 SE 1013,6 25 0 0,0
15.01.2018 09:00:00 2,4 -0,5 1,5 1,0 3,1 7,2 18 10 26 14 SE 1014,2 25 0 0,0
15.01.2018 08:00:00 2,0 -1,1 0,8 1,0 3,1 7,2 17 9 22 12 SE 1014,9 30 0 0,0
15.01.2018 07:00:00 2,0 -1,3 0,9 1,0 3,2 7,2 16 8 21 11 SE 1015,7 25 0 0,0
15.01.2018 06:00:00 2,3 -1,3 1,4 1,0 3,2 7,3 11 6 16 9 SE 1016,1 25 0 0,0
15.01.2018 05:00:00 2,5 -1,5 1,5 1,0 3,3 7,3 12 7 21 11 SE 1017,2 28 0 0,0
15.01.2018 04:00:00 2,2 -1,6 1,7 1,0 3,3 7,3 16 8 25 14 SE 1018,0 28 0 0,0
15.01.2018 03:00:00 1,7 -2,0 0,9 1,0 3,4 7,3 16 9 25 14 SE 1018,8 25 0 0,0
15.01.2018 02:00:00 1,9 -2,1 1,2 1,0 3,5 7,3 15 8 23 12 SE 1019,3 25 0 0,0
15.01.2018 01:00:00 1,7 -2,1 0,6 1,1 3,6 7,3 13 7 22 12 ESE 1020,1 24 0 0,0
15.01.2018 00:00:00 1,4 -2,2 0,0 1,1 3,7 7,3 12 7 22 12 ESE 1020,6 22 0 0,0
14.01.2018 23:00:00 1,5 -2,1 0,0 1,2 3,8 7,3 14 7 22 12 SE 1021,0 22 0 0,0
14.01.2018 22:00:00 1,6 -2,0 0,0 1,3 4,0 7,3 12 7 20 11 SE 1021,2 24 0 0,0
14.01.2018 21:00:00 1,6 -2,0 0,0 1,4 4,1 7,3 13 7 15 8 ESE 1021,5 26 0 0,0
14.01.2018 20:00:00 1,9 -2,0 0,3 1,4 4,3 7,3 11 6 16 9 ESE 1021,5 28 0 0,0
14.01.2018 19:00:00 1,9 -2,1 0,2 1,7 4,5 7,3 13 7 15 8 ESE 1021,4 30 0 0,0
14.01.2018 18:00:00 2,1 -2,0 0,3 2,2 4,7 7,3 11 6 22 12 SE 1021,6 30 0 0,0
14.01.2018 17:00:00 2,8 -1,8 1,4 3,1 4,8 7,3 17 9 24 13 SE 1021,5 30 1 0,0
14.01.2018 16:00:00 3,4 -1,8 2,5 4,1 4,8 7,3 16 9 27 15 SE 1021,4 35 39 0,0
14.01.2018 15:00:00 4,1 -1,5 4,2 4,6 4,7 7,3 18 10 34 18 SE 1021,4 35 25 0,0
14.01.2018 14:00:00 3,9 -1,5 4,2 4,6 4,6 7,3 21 11 37 20 SE 1021,5 35 1 0,0
14.01.2018 13:00:00 3,6 -2,1 3,8 4,6 4,5 7,4 27 14 44 24 SE 1021,6 17 47 0,0
14.01.2018 12:00:00 4,0 -1,6 4,9 4,0 4,4 7,4 30 16 44 24 ESE 1022,1 16 60 0,0
14.01.2018 11:00:00 3,2 -1,6 3,6 2,9 4,4 7,4 25 14 42 23 ESE 1022,4 16 60 0,0
14.01.2018 10:00:00 2,4 -1,7 2,1 2,1 4,6 7,4 13 7 26 14 ESE 1022,3 10 20 0,0
14.01.2018 09:00:00 2,0 -1,7 0,7 2,3 4,7 7,4 13 7 24 13 ESE 1021,9 22 0 0,0
14.01.2018 08:00:00 2,9 -1,4 2,1 3,0 4,8 7,4 15 8 29 16 ESE 1021,8 28 0 0,0
14.01.2018 07:00:00 3,3 -1,0 2,8 3,1 4,9 7,4 17 9 29 16 ESE 1021,7 28 0 0,0
14.01.2018 06:00:00 3,2 -0,8 2,5 3,2 5,0 7,4 15 8 29 16 E 1021,5 28 0 0,0
14.01.2018 05:00:00 3,5 -0,7 2,8 3,5 5,1 7,4 22 12 32 17 E 1021,7 28 0 0,0
14.01.2018 04:00:00 3,8 -0,6 3,4 3,7 5,1 7,4 21 11 34 18 E 1021,9 30 0 0,0
14.01.2018 03:00:00 4,1 -0,5 3,6 3,8 5,2 7,4 24 13 45 24 E 1022,0 35 0 0,0
14.01.2018 02:00:00 4,4 -0,6 4,0 4,0 5,3 7,4 26 14 47 25 ESE 1022,2 35 0 0,0
14.01.2018 01:00:00 4,7 -0,1 4,2 4,1 5,3 7,4 24 13 37 20 SE 1022,5 30 0 0,0
14.01.2018 00:00:00 4,9 0,0 4,3 4,1 5,4 7,4 19 10 31 17 ESE 1022,8 30 0 0,0
13.01.2018 23:00:00 5,1 -0,2 4,5 4,2 5,4 7,4 15 8 33 18 ESE 1022,9 30 0 0,0
13.01.2018 22:00:00 5,2 -0,2 4,5 4,2 5,5 7,4 23 13 37 20 ESE 1023,1 30 0 0,0
13.01.2018 21:00:00 5,4 -0,5 4,8 4,3 5,6 7,4 19 10 35 19 ESE 1023,3 35 0 0,0
13.01.2018 20:00:00 5,6 -0,7 5,0 4,4 5,7 7,4 22 12 35 19 ESE 1023,4 35 0 0,0
13.01.2018 19:00:00 5,6 -0,4 4,8 4,5 5,8 7,4 22 12 34 18 ESE 1023,5 35 0 0,0
13.01.2018 18:00:00 5,5 -0,5 4,5 4,6 5,9 7,4 14 8 35 19 ESE 1023,9 45 0 0,0
13.01.2018 17:00:00 5,7 -0,1 4,7 5,1 5,9 7,4 23 13 35 19 ESE 1024,0 40 3 0,0
13.01.2018 16:00:00 5,9 -0,5 5,2 5,6 5,9 7,4 22 12 35 19 SE 1024,2 45 3 0,0
13.01.2018 15:00:00 6,3 -0,4 5,9 6,0 5,8 7,4 24 13 41 22 SE 1024,5 45 0 0,0
13.01.2018 14:00:00 6,2 0,4 6,2 6,1 5,8 7,4 24 13 37 20 SE 1025,3 45 0 0,0
13.01.2018 13:00:00 6,1 0,7 6,2 6,0 5,7 7,4 23 12 38 20 SE 1026,0 40 3 0,0
13.01.2018 12:00:00 5,7 1,7 5,8 5,5 5,6 7,4 19 10 28 15 SE 1026,4 35 0 0,0
13.01.2018 11:00:00 4,9 1,2 4,9 4,9 5,6 7,4 15 8 35 19 SE 1026,6 25 0 0,0
13.01.2018 10:00:00 5,1 1,8 4,8 4,9 5,7 7,4 20 11 38 20 ESE 1026,5 25 0 0,0
13.01.2018 09:00:00 5,5 2,6 5,1 5,0 5,7 7,4 17 9 26 14 SE 1026,0 18 0 0,0
13.01.2018 08:00:00 5,7 3,1 5,2 5,0 5,7 7,4 13 7 24 13 ESE 1025,8 22 0 0,0
13.01.2018 07:00:00 5,7 3,5 5,2 5,0 5,7 7,3 14 8 18 10 ESE 1025,8 22 0 0,0
13.01.2018 06:00:00 5,7 4,0 5,2 4,9 5,7 7,3 16 9 22 12 ESE 1026,0 8 0 0,0
13.01.2018 05:00:00 5,3 4,0 4,8 4,9 5,7 7,3 8 4 11 6 ESE 1026,1 6 0 0,0
13.01.2018 04:00:00 4,6 3,7 3,8 4,8 5,8 7,3 7 4 8 4 ESE 1026,4 5 0 0,0
13.01.2018 03:00:00 4,0 3,9 3,8 4,8 5,8 7,3 5 3 8 4 ESE 1026,9 5 0 0,0
13.01.2018 02:00:00 4,0 3,6 3,4 4,8 5,9 7,3 3 1 4 2 E 1027,1 5 0 0,0
13.01.2018 01:00:00 4,4 4,0 3,9 4,9 6,0 7,3 0 0 5 3 N 1027,1 6 0 0,0
13.01.2018 00:00:00 4,8 4,0 3,8 5,1 6,1 7,3 4 2 8 4 E 1027,3 6 0 0,0
12.01.2018 23:00:00 4,8 4,1 4,1 5,3 6,1 7,3 3 2 8 4 N 1027,4 6 0 0,0
12.01.2018 22:00:00 4,4 3,8 3,8 5,4 6,2 7,3 2 1 5 3 ESE 1027,7 7 0 0,0
12.01.2018 21:00:00 4,9 4,0 4,2 5,6 6,2 7,3 4 2 5 3 E 1027,3 7 0 0,0
12.01.2018 20:00:00 5,1 4,0 4,6 5,8 6,3 7,3 4 2 8 4 SE 1027,1 6 0 0,0
12.01.2018 19:00:00 5,4 4,1 5,0 6,0 6,3 7,3 5 3 5 3 E 1027,0 4,8 0 0,0
12.01.2018 18:00:00 5,5 4,0 5,2 6,2 6,3 7,3 4 2 8 4 ESE 1027,1 4,0 0 0,0
12.01.2018 17:00:00 5,6 4,0 5,4 6,4 6,3 7,3 5 3 5 3 E 1027,0 3,8 0 0,0
12.01.2018 16:00:00 5,7 4,0 5,9 6,7 6,2 7,3 3 2 5 3 NE 1026,8 3,8 0 0,0
12.01.2018 15:00:00 5,6 3,9 6,2 6,7 6,2 7,3 3 1 5 3 ENE 1026,5 3,5 0 0,0
12.01.2018 14:00:00 5,4 4,0 6,2 6,6 6,1 7,3 5 3 8 4 N 1026,5 3,5 0 0,0
12.01.2018 13:00:00 5,3 4,2 6,0 6,2 6,0 7,3 5 3 9 5 N 1026,8 3,0 0 0,0
12.01.2018 12:00:00 4,8 4,3 5,5 5,9 6,0 7,3 5 3 11 6 N 1027,0 2,8 0 0,0
12.01.2018 11:00:00 4,7 4,4 5,0 5,7 6,0 7,3 6 3 9 5 NNW 1026,9 2,0 0 0,0
12.01.2018 10:00:00 4,6 4,4 4,8 5,5 6,0 7,3 5 3 13 7 NW 1026,5 1,6 0 0,0
12.01.2018 09:00:00 4,7 4,5 4,6 5,5 6,0 7,3 6 4 11 6 WNW 1025,7 1,8 0 0,0
12.01.2018 08:00:00 4,8 4,6 4,7 5,5 6,0 7,3 5 3 11 6 WNW 1025,3 2,8 0 0,0
12.01.2018 07:00:00 5,1 4,9 5,0 5,5 6,0 7,3 7 4 13 7 NW 1024,7 3,4 0 0,0
12.01.2018 06:00:00 5,2 4,9 4,9 5,5 6,0 7,2 8 4 13 7 NW 1024,6 5 0 0,0

tt = Température de l'air
td = dewpoint
tt 5cm = Température de l'air 5cm
tt -5cm = Température de l'air -5cm
tt -20cm = Température de l'air -20cm
tt -100cm = Température de l'air -100cm
ff = Vitesse du vent
fx = gusts
dd = Direction du vent
ppp = reduced air pressure
vv = visibility
sd = Ensoleillement
rr = Quantités de précipitations

stations d'obs. à proximité